TimeEDT,TemperatureF,Dew PointF,Humidity,Sea Level PressureIn,VisibilityMPH,Wind Direction,Wind SpeedMPH,Gust SpeedMPH,PrecipitationIn,Events,Conditions,WindDirDegrees,DateUTC
12:53 AM,73.9,72.0,93,30.07,5.0,Calm,Calm,-,N/A,,Clear,0,2013-05-12 04:53:00
1:07 AM,71.6,71.6,100,30.06,1.5,Calm,Calm,-,N/A,,Partly Cloudy,0,2013-05-12 05:07:00
1:19 AM,71.6,71.6,100,30.06,0.8,Calm,Calm,-,N/A,,Mist,0,2013-05-12 05:19:00
1:43 AM,73.4,71.6,94,30.06,1.2,Calm,Calm,-,N/A,,Scattered Clouds,0,2013-05-12 05:43:00
1:46 AM,71.6,71.6,100,30.06,1.0,Calm,Calm,-,N/A,,Mist,0,2013-05-12 05:46:00
1:49 AM,71.6,71.6,100,30.05,0.8,Calm,Calm,-,N/A,,Mostly Cloudy,0,2013-05-12 05:49:00
1:53 AM,71.1,71.1,100,30.06,0.8,Calm,Calm,-,N/A,,Mostly Cloudy,0,2013-05-12 05:53:00
1:58 AM,71.6,69.8,94,30.05,2.0,Calm,Calm,-,N/A,,Scattered Clouds,0,2013-05-12 05:58:00
2:05 AM,71.6,71.6,100,30.05,5.0,Calm,Calm,-,N/A,,Mostly Cloudy,0,2013-05-12 06:05:00
2:08 AM,71.6,71.6,100,30.05,1.8,Calm,Calm,-,N/A,,Mostly Cloudy,0,2013-05-12 06:08:00
2:17 AM,71.6,71.6,100,30.05,0.5,Calm,Calm,-,N/A,Fog,Fog,0,2013-05-12 06:17:00
2:47 AM,73.4,71.6,94,30.03,3.0,SE,4.6,-,N/A,,Overcast,140,2013-05-12 06:47:00
2:53 AM,73.9,73.0,97,30.03,3.0,SE,5.8,-,N/A,,Overcast,140,2013-05-12 06:53:00
2:57 AM,73.4,73.4,100,30.02,1.8,SSE,4.6,-,N/A,,Overcast,150,2013-05-12 06:57:00
3:09 AM,73.4,73.4,100,30.02,0.8,SSE,4.6,-,N/A,,Mist,150,2013-05-12 07:09:00
3:34 AM,73.4,73.4,100,30.00,0.5,SSE,5.8,-,N/A,Fog,Fog,150,2013-05-12 07:34:00
3:53 AM,73.9,73.9,100,29.99,0.2,SSE,6.9,-,N/A,Fog,Fog,150,2013-05-12 07:53:00
4:30 AM,75.2,73.4,94,29.96,1.5,SSE,9.2,-,N/A,,Overcast,150,2013-05-12 08:30:00
4:35 AM,75.2,73.4,94,29.96,3.0,SE,8.1,-,N/A,,Overcast,140,2013-05-12 08:35:00
4:53 AM,75.0,73.9,96,29.99,4.0,Calm,Calm,-,N/A,,Overcast,0,2013-05-12 08:53:00
5:31 AM,75.2,73.4,94,30.00,6.0,SW,3.5,-,N/A,,Overcast,220,2013-05-12 09:31:00
5:50 AM,75.2,73.4,94,30.01,6.0,West,3.5,-,0.01,,Overcast,260,2013-05-12 09:50:00
5:53 AM,75.0,73.9,96,30.01,6.0,West,4.6,-,0.01,,Overcast,260,2013-05-12 09:53:00
6:30 AM,73.4,73.4,100,30.01,6.0,SE,3.5,-,N/A,,Scattered Clouds,140,2013-05-12 10:30:00
6:53 AM,73.9,73.0,97,30.02,3.0,SSE,6.9,-,N/A,,Clear,160,2013-05-12 10:53:00
7:53 AM,75.9,73.9,94,30.05,7.0,SSW,4.6,-,N/A,,Clear,200,2013-05-12 11:53:00
8:53 AM,80.1,73.9,81,30.06,10.0,SW,9.2,-,N/A,,Clear,230,2013-05-12 12:53:00
9:53 AM,82.0,72.0,71,30.06,10.0,SW,8.1,-,N/A,,Scattered Clouds,220,2013-05-12 13:53:00
10:53 AM,84.0,72.0,67,30.06,10.0,WSW,12.7,-,N/A,,Partly Cloudy,240,2013-05-12 14:53:00
11:53 AM,86.0,72.0,63,30.06,10.0,SW,15.0,-,N/A,,Clear,230,2013-05-12 15:53:00
12:53 PM,87.1,72.0,61,30.04,10.0,SW,15.0,-,N/A,,Clear,220,2013-05-12 16:53:00
1:53 PM,88.0,71.1,57,30.03,10.0,WSW,15.0,-,N/A,,Clear,250,2013-05-12 17:53:00
2:53 PM,87.1,70.0,57,30.03,10.0,WSW,15.0,-,N/A,,Clear,250,2013-05-12 18:53:00
3:53 PM,86.0,70.0,59,30.02,10.0,West,16.1,-,N/A,,Partly Cloudy,260,2013-05-12 19:53:00
4:53 PM,86.0,70.0,59,30.01,10.0,West,12.7,-,N/A,,Clear,280,2013-05-12 20:53:00
5:53 PM,84.9,68.0,57,30.01,10.0,West,12.7,-,N/A,,Clear,280,2013-05-12 21:53:00
6:53 PM,82.9,68.0,60,30.01,10.0,West,11.5,-,N/A,,Clear,280,2013-05-12 22:53:00
7:53 PM,81.0,69.1,67,30.04,10.0,West,8.1,-,N/A,,Clear,280,2013-05-12 23:53:00
8:53 PM,79.0,71.1,77,30.06,10.0,WNW,6.9,-,N/A,,Clear,300,2013-05-13 00:53:00
9:53 PM,78.1,71.1,79,30.07,10.0,West,4.6,-,N/A,,Clear,280,2013-05-13 01:53:00
10:53 PM,77.0,71.1,82,30.08,10.0,West,4.6,-,N/A,,Clear,280,2013-05-13 02:53:00
11:53 PM,75.0,70.0,84,30.08,10.0,Calm,Calm,-,N/A,,Clear,0,2013-05-13 03:53:00